JA1KWV-11 Weather Reports


time (UTC)temp
C
wind
direction
speed
KPH
gust
KPH
rain 1hr
cm
rain 24hr
cm
rain mn
cm
humidity
%
barometer
mb
20260504205304 23 267 0.0 0.0 0.00 0.00 0.00 63 1017.5
20260504204503 23 267 0.0 0.0 0.00 0.00 0.00 63 1017.2
20260504203703 23 267 0.0 0.0 0.00 0.00 0.00 63 1017.1
20260504202903 23 267 0.0 0.0 0.00 0.00 0.00 63 1016.6
20260504202103 23 267 0.0 0.0 0.00 0.00 0.00 63 1016.6
20260504201302 23 267 0.0 0.0 0.00 0.00 0.00 62 1016.4
20260504200502 23 267 0.0 0.0 0.00 0.00 0.00 62 1016.1
20260504195702 23 267 0.0 0.0 0.00 0.00 0.00 62 1015.9
20260504194902 23 267 0.0 0.0 0.00 0.00 0.00 62 1015.8
20260504194101 23 267 0.0 0.0 0.00 0.00 0.00 62 1015.9
20260504193301 23 267 0.0 0.0 0.00 0.00 0.00 62 1015.1
20260504192501 23 267 0.0 0.0 0.00 0.00 0.00 62 1014.9
20260504191701 23 267 0.0 0.0 0.00 0.00 0.00 63 1015.0
20260504190901 23 267 0.0 0.0 0.00 0.00 0.00 63 1014.8
20260504190100 23 267 0.0 0.0 0.00 0.00 0.00 62 1014.4
20260504185300 23 267 0.0 0.0 0.00 0.00 0.00 62 1014.4
20260504184500 23 267 0.0 0.0 0.00 0.00 0.00 63 1014.5
20260504183700 23 267 0.0 0.0 0.00 0.00 0.00 63 1014.1
20260504182859 23 267 0.0 0.0 0.00 0.00 0.00 63 1014.1
20260504182059 23 267 0.0 0.0 0.00 0.00 0.00 63 1014.2
20260504181259 23 267 0.0 0.0 0.00 0.00 0.00 63 1013.8
20260504180459 23 267 0.0 0.0 0.00 0.00 0.00 63 1013.7
20260504175659 23 267 0.0 0.0 0.00 0.00 0.00 63 1013.4
20260504174858 23 267 0.0 0.0 0.00 0.00 0.00 62 1013.1
20260504174058 23 267 0.0 0.0 0.00 0.00 0.00 63 1012.8
20260504173258 23 267 0.0 0.0 0.00 0.00 0.00 62 1012.8
20260504172458 23 267 0.0 0.0 0.00 0.00 0.00 63 1012.5
20260504171657 23 267 0.0 0.0 0.00 0.00 0.00 62 1012.5
20260504170857 23 267 0.0 0.0 0.00 0.00 0.00 63 1012.3
20260504150854 24 267 0.0 0.0 0.00 0.00 0.00 63 1009.6
20260504141252 24 267 0.0 0.0 0.00 0.00 0.00 63 1007.6
20260504140452 24 267 0.0 0.0 0.00 0.00 0.00 62 1007.6
20260504100446 25 267 0.0 0.0 0.00 0.00 0.00 66 1000.5
20260504081242 25 267 0.0 0.0 0.00 0.00 0.00 68 996.7
20260504080442 25 267 0.0 0.0 0.00 0.00 0.00 69 996.2
20260504045237 25 267 0.0 0.0 0.00 0.00 0.00 71 994.1
20260504044437 25 267 0.0 0.0 0.00 0.00 0.00 72 993.9
20260504043637 25 267 0.0 0.0 0.00 0.00 0.00 72 994.1
20260504042836 25 267 0.0 0.0 0.00 0.00 0.00 73 994.1
20260504042036 25 267 0.0 0.0 0.00 0.00 0.00 72 994.4
20260504041236 25 267 0.0 0.0 0.00 0.00 0.00 74 994.3
20260504040436 25 267 0.0 0.0 0.00 0.00 0.00 74 994.3
20260504035635 25 267 0.0 0.0 0.00 0.00 0.00 73 994.3
20260504034835 25 267 0.0 0.0 0.00 0.00 0.00 75 994.6
20260504034035 25 267 0.0 0.0 0.00 0.00 0.00 75 994.7
20260504033235 25 267 0.0 0.0 0.00 0.00 0.00 75 994.7
20260504032435 25 267 0.0 0.0 0.00 0.00 0.00 75 995.1
20260504031634 25 267 0.0 0.0 0.00 0.00 0.00 75 994.9
20260504030834 25 267 0.0 0.0 0.00 0.00 0.00 77 995.4
20260504030034 25 267 0.0 0.0 0.00 0.00 0.00 78 995.3
20260504025234 25 267 0.0 0.0 0.00 0.00 0.00 78 995.8
20260504024433 25 267 0.0 0.0 0.00 0.00 0.00 79 995.7
20260504023633 25 267 0.0 0.0 0.00 0.00 0.00 79 995.8
20260504022833 25 267 0.0 0.0 0.00 0.00 0.00 79 995.6
20260504022033 25 267 0.0 0.0 0.00 0.00 0.00 80 995.7
20260504021233 25 267 0.0 0.0 0.00 0.00 0.00 79 996.1
20260504020432 25 267 0.0 0.0 0.00 0.00 0.00 79 995.8
20260504015632 25 267 0.0 0.0 0.00 0.00 0.00 79 995.8
20260504014832 24 267 0.0 0.0 0.00 0.00 0.00 79 996.1
20260504014032 25 267 0.0 0.0 0.00 0.00 0.00 79 996.4
20260504013231 24 267 0.0 0.0 0.00 0.00 0.00 79 996.2
20260504012431 24 267 0.0 0.0 0.00 0.00 0.00 78 996.4
20260504011631 24 267 0.0 0.0 0.00 0.00 0.00 78 996.7
20260504010831 24 267 0.0 0.0 0.00 0.00 0.00 78 996.6
20260504010031 24 267 0.0 0.0 0.00 0.00 0.00 78 996.7
20260504005230 24 267 0.0 0.0 0.00 0.00 0.00 78 997.0
20260504004430 24 267 0.0 0.0 0.00 0.00 0.00 79 996.6
20260504003630 24 267 0.0 0.0 0.00 0.00 0.00 78 996.9
20260504002830 24 267 0.0 0.0 0.00 0.00 0.00 78 997.2
20260504002030 24 267 0.0 0.0 0.00 0.00 0.00 77 996.8
20260504001229 24 267 0.0 0.0 0.00 0.00 0.00 78 996.9
20260504000431 24 267 0.0 0.0 0.00 0.00 0.00 78 997.2
20260503235629 24 267 0.0 0.0 0.00 0.00 0.00 76 996.8
20260503234829 24 267 0.0 0.0 0.00 0.00 0.00 78 997.4
20260503234028 24 267 0.0 0.0 0.00 0.00 0.00 78 996.9
20260503233228 24 267 0.0 0.0 0.00 0.00 0.00 77 997.2
20260503232428 24 267 0.0 0.0 0.00 0.00 0.00 78 997.1
20260503231628 24 267 0.0 0.0 0.00 0.00 0.00 78 996.9
20260503230828 24 267 0.0 0.0 0.00 0.00 0.00 78 997.2
20260503230027 24 267 0.0 0.0 0.00 0.00 0.00 78 997.1
20260503225227 24 267 0.0 0.0 0.00 0.00 0.00 78 997.4
20260503224427 24 267 0.0 0.0 0.00 0.00 0.00 78 997.1
20260503223627 24 267 0.0 0.0 0.00 0.00 0.00 78 997.1
20260503222827 24 267 0.0 0.0 0.00 0.00 0.00 78 997.0
20260503222026 24 267 0.0 0.0 0.00 0.00 0.00 78 997.0
20260503221226 24 267 0.0 0.0 0.00 0.00 0.00 79 997.1
20260503220426 24 267 0.0 0.0 0.00 0.00 0.00 78 997.2
20260503215626 24 267 0.0 0.0 0.00 0.00 0.00 79 996.8
20260503214825 24 267 0.0 0.0 0.00 0.00 0.00 78 996.7
20260503214025 24 267 0.0 0.0 0.00 0.00 0.00 78 996.1
20260503213225 24 267 0.0 0.0 0.00 0.00 0.00 79 995.8
20260503212425 24 267 0.0 0.0 0.00 0.00 0.00 78 995.7
20260503211624 24 267 0.0 0.0 0.00 0.00 0.00 78 995.7
20260503210824 24 267 0.0 0.0 0.00 0.00 0.00 78 996.2
20260503210024 24 267 0.0 0.0 0.00 0.00 0.00 78 996.0